Voltar ao catálogo

STARLINK-35070

AtivoComunicaçõesVLEO
NORAD 65680·PAYLOAD·🇺🇸 United States

Lançado Sep 21, 2025 de Cape Canaveral Space Force Station

Loading…

Próximas Passagens (próximas 24 horas)

TLE

AtualizadoSource: CelesTrak SupGP

Época: Sep 14, 2026, 20:43 UTC

1 65680C 25212E   26257.86368056  .00014966  00000+0  48113-3 0  2573
2 65680  53.1574 186.0666 0001213  94.4827 127.4551 15.31702569    11

Acompanhe STARLINK-35070 em tempo real com AllMySat

Download on the App Store